This is the latest recevied weather packets stored in our database for station/object KD9JB-1. If no packets are shown the sender has not sent any weather packets the latest 10 day(s).
| Time | Temp. | Humidity | Pressure | Rain* | Wind** | Luminosity | Snow |
|---|---|---|---|---|---|---|---|
| 1778255789 | 20° C | 51% | 1014.2 hPa | 0 mm | - | - | - |
| 1778255489 | 20° C | 52% | 1014.3 hPa | 0 mm | - | - | - |
| 1778255189 | 20° C | 53% | 1014.4 hPa | 0 mm | - | - | - |
| 1778254889 | 20° C | 52% | 1014.4 hPa | 0 mm | - | - | - |
| 1778254589 | 19.44° C | 51% | 1014.6 hPa | 0 mm | - | - | - |
| 1778254289 | 19.44° C | 51% | 1014.5 hPa | 0 mm | - | - | - |
| 1778253989 | 19.44° C | 54% | 1014.5 hPa | 0 mm | - | - | - |
| 1778253689 | 19.44° C | 54% | 1014.7 hPa | 0 mm | - | - | - |
| 1778253389 | 19.44° C | 53% | 1014.8 hPa | 0 mm | - | - | - |
| 1778253089 | 19.44° C | 55% | 1014.9 hPa | 0 mm | - | - | - |
| 1778252789 | 18.89° C | 54% | 1014.9 hPa | 0 mm | - | - | - |
| 1778252489 | 18.89° C | 55% | 1015 hPa | 0 mm | - | - | - |
| 1778252189 | 18.89° C | 57% | 1015 hPa | 0 mm | - | - | - |
| 1778251889 | 18.33° C | 58% | 1014.9 hPa | 0 mm | - | - | - |
| 1778251589 | 17.78° C | 59% | 1014.9 hPa | 0 mm | - | - | - |
| 1778251289 | 17.78° C | 55% | 1014.9 hPa | 0 mm | - | - | - |
| 1778250989 | 18.33° C | 57% | 1014.9 hPa | 0 mm | - | - | - |
| 1778250689 | 17.78° C | 58% | 1014.9 hPa | 0 mm | - | - | - |
| 1778250389 | 17.22° C | 59% | 1015.1 hPa | 0 mm | - | - | - |
| 1778250089 | 17.22° C | 59% | 1015.2 hPa | 0 mm | - | - | - |
| 1778249789 | 16.67° C | 62% | 1015.3 hPa | 0 mm | - | - | - |
| 1778249489 | 16.11° C | 59% | 1015.4 hPa | 0 mm | - | - | - |
| 1778249189 | 16.11° C | 60% | 1015.4 hPa | 0 mm | - | - | - |
| 1778248889 | 15.56° C | 61% | 1015.4 hPa | 0 mm | - | - | - |
| 1778248589 | 15.56° C | 61% | 1015.3 hPa | 0 mm | - | - | - |
* Rain latest hour (hover to see other rain measurements)
** Current wind speed in m/s (hover to see current wind gust speed)